www.pogodaiklimat.ru

Погода и климат >> Архив погоды >> Южная Африка >> Вьебум


ПОГОДА во Вьебуме

  • Прогноз погоды во Вьебуме
  • Монитор погоды во Вьебуме

АРХИВ ПОГОДЫ во Вьебуме

Время (UTC), дата Ветер
(напр.,м/с)
 
Видим.   Явления Облачность Т
(С)
Тd
(С)
f
(%)
Тe
(С)
Тes
(С)
Комфортность P
(гПа)
Po
(гПа)
Тmin
(С)
Tmax
(С)
R
(мм)
R24
(мм)
S
(см)
00 12.06 З 5 н/о н/о +12.0 +10.0 88 +10 +10 982.9 +12.0 +19.6 15
03 12.06 З 7 н/о н/о +12.3 +6.6 68 +10 +10 984.4 +12.0 +19.6
06 12.06 З 7 н/о н/о +10.7 +7.2 79 +7 +7 986.6 +10.2 22
09 12.06 З 3 н/о н/о +11.6 +6.5 71 +10 +10 990.5 +10.2 +12.8
12 12.06 З 2 н/о н/о +11.8 +5.4 65 +11 +11 990.8 +10.2 +13.4 1
15 12.06 ЮЗ 1 н/о н/о +9.5 +5.6 77 +9 +9 993.3 +9.5 +13.4
18 12.06 штиль 0 н/о н/о +8.5 +6.6 88 +8 +8 995.6 +8.5 +13.4 2
21 12.06 штиль 0 н/о н/о +7.1 +5.8 91 +6 +6 996.6 +7.1 +13.4
00 13.06 штиль 0 н/о н/о +4.1 +3.2 94 +3 +3 997.3 +4.1 +13.4 2
03 13.06 штиль 0 н/о н/о +2.6 +1.8 94 +1 +1 997.9 +2.6 +13.4
06 13.06 штиль 0 н/о н/о +1.0 +0.2 94 -0 -0 998.4 +1.0 2
09 13.06 В 1 н/о н/о +11.4 +4.8 64 +11 +11 998.6 +1.0 +11.4
12 13.06 Ю 1 н/о н/о +13.9 +2.8 47 +14 +14 995.9 +1.0 +14.4
15 13.06 З 1 н/о н/о +11.9 +4.4 60 +12 +12 995.6 +11.9 +14.4
18 13.06 штиль 0 н/о н/о +5.7 +3.7 87 +5 +5 995.6 +5.7 +14.4
21 13.06 В 1 н/о н/о +2.9 +1.7 92 +1 +1 994.9 +2.9 +14.4
00 14.06 штиль 0 н/о н/о +1.1 +0.2 94 -0 -0 993.9 +1.0 +14.4
03 14.06 В 1 н/о н/о +0.4 -0.4 94 -2 -2 993.2 0.0 +14.4
06 14.06 штиль 0 н/о н/о 0.0 -0.8 94 -1 -1 994.0 -0.2
09 14.06 Ю 1 н/о н/о +12.1 +4.6 60 +12 +12 993.3 -0.2 +12.1
12 14.06 С 1 н/о н/о +18.5 +3.2 36 +20 +20 990.8 -0.2 +18.6 0.2
15 14.06 З 1 н/о н/о +16.1 -0.0 33 +17 +17 989.5 +16.1 +19.4
21 14.06 В 1 н/о н/о +3.8 +2.1 89 +2 +2 989.0 +3.8 +19.4
00 15.06 штиль 0 н/о н/о +2.3 +0.9 90 +1 +1 987.0 +2.3 +19.4 0.2
03 15.06 штиль 0 н/о н/о +1.1 -0.0 92 -0 -0 986.2 +1.1 +19.4
06 15.06 З 2 н/о н/о +5.4 +1.3 75 +4 +4 986.2 +0.7 0.2
09 15.06 З 2 н/о н/о +15.1 +7.7 61 +15 +15 988.6 +0.7 +15.1
12 15.06 З 2 н/о н/о +18.1 +2.5 35 +19 +19 987.2 +0.7 +18.1
15 15.06 З 2 н/о н/о +14.5 +7.8 64 +15 +15 986.8 +14.5 +18.1
18 15.06 СВ 1 н/о н/о +7.5 +5.4 87 +7 +7 987.6 +7.5 +18.1
21 15.06 штиль 0 н/о н/о +4.1 +2.9 92 +3 +3 988.2 +4.1 +18.1
03 16.06 В 1 н/о н/о +1.5 +0.6 94 -1 -1 985.7 +1.3 +18.1
06 16.06 В 1 н/о н/о +1.0 +0.2 94 -1 -1 984.7 +0.3 0.2
09 16.06 З 1 н/о н/о +15.1 +7.7 61 +16 +16 984.6 +0.3 +15.1
12 16.06 З 3 н/о н/о +22.5 -0.0 22 +22 +22 комфорт 982.7 +0.3 +23.2
15 16.06 ЮЗ 1 н/о н/о +17.1 +2.4 37 +18 +18 982.6 +17.1 +23.2
18 16.06 В 1 н/о н/о +9.0 +3.6 69 +9 +9 984.2 +9.0 +23.2
21 16.06 В 1 н/о н/о +6.3 +2.3 76 +5 +5 984.3 +6.3 +23.2
00 17.06 В 1 н/о н/о +4.1 +1.8 85 +3 +3 985.2 +4.1 +23.2
03 17.06 В 1 н/о н/о +2.8 +1.1 89 +1 +1 984.7 +2.5 +23.2
06 17.06 В 1 н/о н/о +1.6 +0.1 90 -0 -0 985.3 +1.5
09 17.06 штиль 0 н/о н/о +15.1 +5.9 54 +15 +15 987.4 +1.5 +15.1
12 17.06 Ю 2 н/о н/о +19.4 +5.6 40 +21 +21 комфорт 986.4 +1.5 +21.6
15 17.06 штиль 0 н/о н/о +17.3 +5.3 45 +17 +17 987.3 +17.2 +21.6
18 17.06 В 1 н/о н/о +8.3 +4.7 78 +8 +8 988.3 +8.3 +21.6
00 18.06 В 1 н/о н/о +3.5 +2.3 92 +2 +2 989.8 +2.9 +21.6
03 18.06 В 1 н/о н/о +2.1 +1.0 92 0 0 988.7 +2.0 +21.6
06 18.06 штиль 0 н/о н/о +1.3 +0.4 94 0 0 988.3 +1.3
09 18.06 штиль 0 н/о н/о +15.7 +7.2 57 +16 +16 988.6 +1.3 +15.7
12 18.06 СЗ 4 н/о н/о +25.3 -1.2 17 +23 +23 комфорт 985.6 +1.3 +25.5
18 18.06 В 1 н/о н/о +18.2 +2.2 34 +19 +19 985.8 +17.9 +25.6
21 18.06 штиль 0 н/о н/о +11.6 +4.6 62 +11 +11 986.3 +11.6 +25.6

 

Местоположение метеостанции Вьебум (Южная Африка): широта 34.13 долгота 19.02 высота над уровнем моря 305 м.

В архиве по умолчанию представлена погода во Вьебуме за последнюю неделю. Архивные данные за месяц целиком и за предыдущие месяцы, начиная с января 2011 года, Вы можете получить, выбрав интересующий диапазон дат из раскрывающегося списка и нажав кнопку "Ввод!".


*Определитесь, кто Вы:
робот инопланетянин человек

Внимание! Время в таблицах - всемирное. Для получения местного времени необходимо прибавить поправку, которая равна 2 ч.

Смотрите также архив погоды в соседних городах и на ближайших метеорологических станциях:

Погода в Эль-Мардже (Ливия) (249 км)
Погода в Бенгази (Ливия) (254 км)
Погода в Мефони (Греция) (386 км)
Погода в Сирте (Ливия) (398 км)
Погода в Мисурате (Ливия) (415 км)
Погода в Каламате (Греция) (425 км)
Погода на Китире (Греция) (435 км)
Погода в Коццо Спадаро (Италия) (452 км)
Погода в Аэропорту Мальты (Мальта) (456 км)
Погода в Кефалонии (Греция) (463 км)

Пояснения к столбцам:

Ветер - указаны скорость ветра в м/с - средняя за 10 мин, порывы в срок и между сроками (в фигурных скобках) и направление, откуда дует ветер: С - северный, СВ - северо-восточный, В - восточный, ЮВ - юго-восточный, Ю - южный, ЮЗ - юго-западный, З - западный, СЗ - северо-западный.
Видимость - горизонтальная дальность видимости в метрах или километрах. При видимости от 1 до 10 км при отсутствии осадков обычно наблюдается дымка, при ухудшении видимости до 1 км и менее - туман. В сухую погоду видимость может ухудшаться дымом, пылью или мглою.
Явления - указаны атмосферные явления, наблюдавшиеся в срок или в последний час перед сроком; фигурными скобками обозначены явления, наблюдавшиеся между сроками (за 1-3 часа до срока); квадратными скобками обозначены град или гололедные отложения с указанием их диаметра в мм.
Облачность - указаны через наклонную черту общая и нижняя облачность в баллах и высота нижней границы облаков в метрах; квадратными скобками обозначены формы облаков: Ci - перистые, Cs - перисто-слоистые, Cc - перисто-кучевые, Ac - высококучевые, As - высокослоистые, Sc - слоисто-кучевые, Ns - слоисто-дождевые, Cu - кучевые, Cb - кучево-дождевые. Подробнее классификацию облаков см. в Атласе облаков (PDF).
T - Температура воздуха - температура, измеренная на высоте 2 м над землей.
Td - Температура точки росы - температура, при понижении до которой содержащийся в воздухе водяной пар достигнет насыщения.
f - Относительная влажность воздуха - влажноcть воздуха, измеренная на высоте 2 м над землей.
Te - Эффективная температура - температура, которую ощущает одетый по сезону человек в тени. Характеристика душности погоды. При расчете учитывается влияние влажности воздуха и скорости ветра на теплоощущения человека.
Tes - Эффективная температура на солнце - температура, которую ощущает человек, с поправкой на солнечный нагрев. Характеристика знойности погоды. Зависит от высоты солнца над горизонтом, облачности и скорости ветра. Ночью, в пасмурную погоду, а также при ветре 12 м/с и более поправка равна нулю.
P - Атмосферное давление - приведенное к уровню моря атмосферное давление.
Po - Атмосферное давление - измеренное на уровне метеостанции атмосферное давление.
Tmin - Минимальная температура - минимум температуры воздуха на высоте 2 м над землей.
Tmax - Максимальная температура - максимум температуры воздуха на высоте 2 м над землей.
R - Количество осадков - Количество выпавших осадков за период времени, мм. При наведении курсора мыши на число - период времени, за который выпало указанное количество осадков.
R24 - Количество осадков - Количество выпавших осадков за 24 часа, мм.
S - Снежный покров - Высота снежного покрова, см. При наведении курсора мыши на число - состояние снежного покрова и степень покрытия местности в баллах.